KD5OH Weather Reports


time (UTC)temp
C
wind
direction
speed
KPH
gust
KPH
rain 1hr
cm
rain 24hr
cm
rain mn
cm
humidity
%
barometer
mb
20260504150123 19 256 1.6 6.4 0.00 0.00 0.00 40 1017.2
20260504140156 14 220 1.6 3.2 0.00 0.00 0.00 65 1017.4
20260504130129 13 171 0.0 0.0 0.00 0.00 0.00 62 1017.0
20260504120136 11 28 0.0 0.0 0.00 0.00 0.00 66 1015.8
20260504110129 10 86 1.6 3.2 0.00 0.00 0.00 74 1015.7
20260504100139 11 118 0.0 6.4 0.00 0.00 0.00 71 1015.5
20260504090126 11 40 0.0 0.0 0.00 0.00 0.00 69 1015.3
20260504080124 12 324 1.6 4.8 0.00 0.00 0.00 69 1015.9
20260504070122 15 231 0.0 6.4 0.00 0.00 0.00 55 1016.3
20260504060122 16 71 1.6 3.2 0.00 0.00 0.00 49 1016.4
20260504050128 17 100 3.2 6.4 0.00 0.00 0.00 46 1016.8
20260504044625 17 106 3.2 3.2 0.00 0.00 0.00 46 1016.9
20260504043201 17 106 1.6 3.2 0.00 0.00 0.00 46 1017.0
20260504041655 16 102 1.6 4.8 0.00 0.00 0.00 48 1017.0
20260504040134 16 84 0.0 4.8 0.00 0.00 0.00 49 1016.9
20260504034626 17 129 1.6 3.2 0.00 0.00 0.00 45 1016.9
20260504033125 17 136 3.2 6.4 0.00 0.00 0.00 43 1016.7
20260504031640 17 138 1.6 4.8 0.00 0.00 0.00 44 1016.7
20260504030155 17 121 3.2 4.8 0.00 0.00 0.00 44 1016.9
20260504024631 18 132 0.0 3.2 0.00 0.00 0.00 43 1017.1
20260504023124 18 130 0.0 0.0 0.00 0.00 0.00 42 1016.8
20260504021640 19 222 0.0 3.2 0.00 0.00 0.00 40 1016.7
20260504020133 20 117 3.2 4.8 0.00 0.00 0.00 38 1016.7
20260504014645 20 158 3.2 6.4 0.00 0.00 0.00 37 1016.6
20260504013140 21 138 4.8 6.4 0.00 0.00 0.00 35 1016.5
20260504011652 21 168 3.2 6.4 0.00 0.00 0.00 34 1016.7
20260504010148 21 147 3.2 8.0 0.00 0.00 0.00 34 1017.0
20260504004638 21 149 4.8 9.7 0.00 0.00 0.00 32 1017.0
20260504003131 22 157 1.6 9.7 0.00 0.00 0.00 33 1017.1
20260504001647 22 125 4.8 8.0 0.00 0.00 0.00 32 1017.3
20260504000138 22 190 6.4 11.3 0.00 0.00 0.00 33 1017.3
20260503234634 22 170 6.4 12.9 0.00 0.00 0.00 33 1017.4
20260503233127 21 170 4.8 14.5 0.00 0.00 0.00 33 1017.5
20260503231624 22 179 6.4 12.9 0.00 0.00 0.00 33 1017.6
20260503230135 22 191 9.7 14.5 0.00 0.00 0.00 33 1017.8
20260503224626 22 194 8.0 12.9 0.00 0.00 0.00 32 1018.0
20260503223144 22 227 8.0 14.5 0.00 0.00 0.00 32 1018.2
20260503221634 22 202 8.0 9.7 0.00 0.00 0.00 33 1018.7
20260503220128 22 225 3.2 11.3 0.00 0.00 0.00 33 1018.8
20260503214700 22 93 3.2 11.3 0.00 0.00 0.00 34 1019.0
20260503213132 21 211 1.6 9.7 0.00 0.00 0.00 34 1019.4
20260503211649 22 107 1.6 9.7 0.00 0.00 0.00 34 1019.6
20260503210121 21 128 6.4 11.3 0.00 0.00 0.00 36 1020.1
20260503204638 22 162 8.0 12.9 0.00 0.00 0.00 34 1020.4
20260503203130 21 210 6.4 14.5 0.00 0.00 0.00 36 1020.8
20260503201626 21 113 3.2 9.7 0.00 0.00 0.00 36 1021.0
20260503200159 21 128 6.4 11.3 0.00 0.00 0.00 36 1021.2
20260503194630 21 136 8.0 16.1 0.00 0.00 0.00 35 1021.4
20260503193126 21 246 4.8 11.3 0.00 0.00 0.00 35 1021.6
20260503191638 21 235 0.0 12.9 0.00 0.00 0.00 37 1021.6
20260503190134 20 150 3.2 12.9 0.00 0.00 0.00 40 1021.8
20260503183122 19 256 4.8 11.3 0.00 0.00 0.00 43 1022.5
20260503181633 18 256 4.8 12.9 0.00 0.00 0.00 43 1022.7
20260503180124 18 239 3.2 11.3 0.00 0.00 0.00 45 1022.8
20260503174639 18 221 4.8 9.7 0.00 0.00 0.00 44 1023.1
20260503173130 18 277 1.6 8.0 0.00 0.00 0.00 45 1023.3
20260503171626 18 260 3.2 9.7 0.00 0.00 0.00 46 1023.3
20260503170138 17 21 0.0 8.0 0.00 0.00 0.00 47 1023.3
20260503160134 15 20 3.2 6.4 0.00 0.00 0.00 56 1023.9